Weather History for KJMS - February, 2014

Change the Weather History Date:

Saturday, February 15, 2014

  Actual Average Record
Temperature  
Mean Temperature 7 °F 15 °F  
Max Temperature 16 °F 25 °F 55 °F (1931)
Min Temperature -3 °F 5 °F -42 °F (1936)
Degree Days  
Heating Degree Days 58 50  
Month to date heating degree days 926 781  
Since 1 July heating degree days 6541 6143  
Cooling Degree Days 0 0  
Month to date cooling degree days 0 0  
Year to date cooling degree days 0 0  
Moisture  
Dew Point 7 °F    
Average Humidity 81    
Maximum Humidity 88    
Minimum Humidity 73    
Precipitation  
Precipitation T in 0.02 in 0.25 in (1979)
Month to date precipitation 0.02 0.17  
Year to date precipitation 0.31 0.62  
Sea Level Pressure  
Sea Level Pressure 29.90 in    
Wind  
Wind Speed 13 mph (NNW)    
Max Wind Speed 26 mph    
Max Gust Speed 30 mph    
Visibility 6 miles    
Events Fog , Snow    
T = Trace of Precipitation, MM = Missing Value Source: NWS Daily Summary

Daily Weather History Graph

Daily Weather History Graph

Search for Another Location

Airport or City:

Trip Planner

Search our weather history database for the weather conditions in past years. The results will help you decide how hot, cold, wet, or windy it might be!

Date:

Astronomy

Feb. 15, 2014 Rise Set
Actual Time 7:38 AM CST 5:59 PM CST
Civil Twilight 7:07 AM CST 6:30 PM CST
Nautical Twilight 6:32 AM CST 7:06 PM CST
Astronomical Twilight 5:56 AM CST 7:41 PM CST
Moon 7:07 PM CST (2/15) 7:33 AM CST (2/15)
Length of Visible Light 11h 23m
Length of Day
10h 20m
Waxing Gibbous, 99% of the Moon is Illuminated
Feb 15
Waxing Gibbous
Feb 22
Last Quarter
Mar 1
New
Mar 8
First Quarter
Mar 16
Full

Hourly Weather History & Observations

Time (CST) Temp. Windchill Dew Point Humidity Pressure Visibility Wind Dir Wind Speed Gust Speed Precip Events Conditions
12:56 AM 9.0 °F -5.1 °F 5.0 °F 84% 29.82 in 10.0 mi South 10.4 mph - N/A   Clear
1:56 AM 10.9 °F -3.4 °F 7.0 °F 84% 29.76 in 10.0 mi SSE 11.5 mph - N/A   Mostly Cloudy
2:56 AM 12.0 °F -2.0 °F 8.1 °F 84% 29.72 in 10.0 mi South 11.5 mph - N/A   Mostly Cloudy
3:56 AM 12.0 °F -2.0 °F 8.1 °F 84% 29.68 in 10.0 mi South 11.5 mph - N/A   Overcast
4:56 AM 12.0 °F -2.0 °F 8.1 °F 84% 29.68 in 10.0 mi South 11.5 mph - N/A   Overcast
5:56 AM 12.0 °F -2.0 °F 8.1 °F 84% 29.68 in 10.0 mi South 11.5 mph - N/A   Overcast
6:56 AM 12.9 °F 2.6 °F 9.0 °F 84% 29.68 in 10.0 mi South 6.9 mph - N/A   Overcast
7:41 AM 12.9 °F - 9.0 °F 84% 29.60 in 2.5 mi Calm Calm - 0.00 in Snow Light Snow
7:56 AM 12.9 °F 6.9 °F 10.0 °F 88% 29.70 in 4.0 mi South 3.5 mph - 0.00 in Snow Light Snow
8:56 AM 14.0 °F 8.2 °F 10.0 °F 84% 29.73 in 10.0 mi NW 3.5 mph - 0.00 in   Mostly Cloudy
9:56 AM 15.1 °F 2.5 °F 10.9 °F 84% 29.77 in 10.0 mi NNW 10.4 mph - N/A   Clear
10:37 AM 15.1 °F -2.0 °F 10.9 °F 84% 29.72 in 9.0 mi North 19.6 mph - 0.00 in   Mostly Cloudy
10:56 AM 15.1 °F -3.3 °F 12.0 °F 88% 29.83 in 2.0 mi North 23.0 mph - 0.00 in Snow Light Snow
11:03 AM 15.1 °F -3.3 °F 10.9 °F 84% 29.75 in 1.2 mi North 23.0 mph 28.8 mph 0.00 in Snow Light Snow
11:17 AM 15.1 °F -3.3 °F 12.0 °F 88% 29.76 in 0.5 mi North 23.0 mph - 0.00 in Fog , Snow Light Snow
11:35 AM 15.1 °F -3.7 °F 12.0 °F 88% 29.78 in 1.0 mi North 24.2 mph - 0.00 in Snow Light Snow
11:56 AM 14.0 °F -3.9 °F 10.9 °F 88% 29.91 in 1.5 mi North 20.7 mph - 0.00 in Snow Light Snow
12:11 PM 15.1 °F -2.5 °F 10.9 °F 84% 29.81 in 2.0 mi North 20.7 mph - 0.00 in Snow Light Snow
12:37 PM 16.0 °F -1.7 °F 10.9 °F 81% 29.82 in 1.5 mi North 21.9 mph - 0.00 in Snow Light Snow
12:41 PM 16.0 °F -1.7 °F 10.9 °F 81% 29.83 in 2.0 mi North 21.9 mph - 0.00 in Snow Light Snow
12:56 PM 15.1 °F -3.3 °F 10.9 °F 84% 29.94 in 1.5 mi North 23.0 mph - 0.00 in Snow Light Snow
1:18 PM 15.1 °F -2.9 °F 10.0 °F 80% 29.85 in 3.0 mi North 21.9 mph - 0.00 in Snow Light Snow
1:37 PM 15.1 °F -2.5 °F 9.0 °F 77% 29.87 in 2.0 mi North 20.7 mph - 0.00 in Snow Light Snow
1:47 PM 14.0 °F -4.3 °F 8.1 °F 77% 29.87 in 4.0 mi North 21.9 mph - 0.00 in Snow Light Snow
1:56 PM 14.0 °F -4.7 °F 8.1 °F 77% 29.97 in 3.0 mi North 23.0 mph - 0.00 in Snow Light Snow
2:56 PM 12.0 °F -7.3 °F 8.1 °F 84% 30.02 in 1.5 mi NNW 23.0 mph - 0.00 in Snow Light Snow
3:36 PM 10.9 °F -8.8 °F 6.1 °F 81% 29.95 in 3.0 mi NNW 23.0 mph - 0.00 in Snow Light Snow
3:56 PM 10.9 °F -7.5 °F 5.0 °F 77% 30.07 in 10.0 mi NNW 19.6 mph - 0.00 in   Scattered Clouds
4:47 PM 10.0 °F -8.6 °F 3.9 °F 76% 30.02 in 7.0 mi NNW 19.6 mph - 0.00 in   Mostly Cloudy
4:56 PM 10.0 °F -8.6 °F 3.0 °F 73% 30.13 in 10.0 mi NNW 19.6 mph - 0.00 in   Mostly Cloudy
5:10 PM 9.0 °F -10.5 °F 3.0 °F 77% 30.02 in 10.0 mi North 20.7 mph - N/A   Scattered Clouds
5:56 PM 7.0 °F -12.1 °F 1.9 °F 80% 30.16 in 9.0 mi North 18.4 mph - 0.00 in   Scattered Clouds
6:56 PM 5.0 °F -12.3 °F -0.0 °F 80% 30.21 in 10.0 mi NNW 13.8 mph - 0.00 in   Clear
7:56 PM 3.0 °F -10.5 °F -0.9 °F 84% 30.22 in 10.0 mi North 8.1 mph - N/A   Clear
8:56 PM 1.9 °F -12.9 °F -2.0 °F 83% 30.27 in 10.0 mi NW 9.2 mph - N/A   Clear
9:56 PM -0.0 °F -16.3 °F -4.0 °F 83% 30.22 in 10.0 mi North 10.4 mph - N/A   Clear
10:56 PM -2.0 °F -15.4 °F -7.1 °F 79% 30.22 in 10.0 mi North 6.9 mph - N/A   Clear
11:56 PM -2.9 °F -16.5 °F -7.1 °F 82% 30.23 in 10.0 mi WNW 6.9 mph - N/A   Clear